Weather in Goor

Russia / Republic of Dagestan     42°25′57″N   46°34′12″E
temp.,
°C
wind,
m/s
gust,
m/s
humid.,
%
clouds,
%
prec.,
mm/h
press.,
hPa
HPBL,
m
17 april, sat
sat1700:00+3ssw33755 0.0 102147
03:00+3ssw32745 0.0 102131
06:00+3ssw337691 0.0 102157
09:00+10ssw2347100 0.0 1018750
12:00+14w1340100 0.0 10161869
15:00+14w134099 0.0 10151895
18:00+10ne2266100 0.1 1018389
21:00+7ese128569 0.1 1020167
18 april, sun
sun1800:00+5w118198 0.0 101917
03:00+5ssw2284100 0.0 101823
06:00+6ssw1182100 0.0 101840
09:00+11sse136299 0.0 1016984
12:00+12wsw235769 0.1 10151304
15:00+14n134995 0.6 10131517
18:00+9ene228456 2.2 1017229
21:00+7n1191100 3.6 1019186
19 april, mon
mon1900:00+7se1188100 0.9 101870
03:00+6sw2284100 1.1 101920
06:00+7sw1174100 0.0 101826
09:00+12nne115048 0.0 1017956
12:00+14ne2342100 0.0 10141927
15:00+14s025092 0.1 10141449
18:00+12sse126366 0.2 1015112
21:00+9ssw227436 0.4 101660
20 april, tue
tue2000:00+7sw3378100 0.0 101743
03:00+7ssw3378100 0.0 101645
06:00+8ssw3376100 0.0 101558
09:00+16s2344100 0.0 1011531
12:00+20sw382855 0.0 10082469
15:00+20sw3728100 0.0 10072359
18:00+16ssw3346100 0.0 100944
21:00+12ssw3361100 0.3 101155
21 april, wed
wed2100:00+10ssw3484100 2.5 1014254
03:00+9wsw118190 2.5 101415
06:00+8ne1192100 0.0 101589
09:00+9ne329092 0.2 1015450
12:00+10ne438696 0.4 1015531
15:00+9ne339396 1.1 1014479
18:00+7ne229698 2.3 1017250
21:00+6ene1198100 2.4 1018252